User: anonymous   Login
Location: Roc des P�zouls
(43.9667°N, 3.5500°E)
Time: 20:10:45
(UTC+00:00)
Language:

Cosmos 1484 Rocket - Orbit

View from above orbital plane
View from above orbital plane
View from above satellite
View from above satellite

Ground track
Ground track

The orbit data is extracted from the following two-line orbital elements,

1 14208U 83075B   20020.58114804 +.00000336 +00000-0 +23465-4 0  9999
2 14208 097.3825 009.2275 0040483 101.0282 259.5506 15.11039983990245
Epoch (UTC): 20 January 2020 13:56:51
Eccentricity: 0.0040483
inclination: 97.3825°
perigee height: 505 km
apogee height: 561 km
right ascension of ascending node: 9.2275°
argument of perigee: 101.0282°
revolutions per day: 15.11039983
mean anomaly at epoch: 259.5506°
orbit number at epoch: 99024

The dashed part of the orbit path shows where the satellite is in the earth's shadow,  

DLR